Location: Boyd Lake Observing Site
(40.4253°N, 105.0442°W)
Time: 04:26:02
(UTC-07:00)

ISS - Visible Passes

Search period start: 24 November 2017 00:00
Search period end: 04 December 2017 00:00
Orbit: 402 x 407 km, 51.6° (Epoch: 24 November)

Date Brightness Start Highest point End Pass type
(mag) Time Alt. Az. Time Alt. Az. Time Alt. Az.
24 Nov -1.2 18:15:07 10° SSE 18:15:22 11° SSE 18:15:22 11° SSE visible
25 Nov -1.1 18:57:27 10° SW 18:58:18 17° SW 18:58:18 17° SW visible
26 Nov -2.9 18:05:28 10° SSW 18:08:27 33° SE 18:08:28 33° SE visible
27 Nov -1.9 17:14:01 10° S 17:16:16 17° SE 17:18:31 10° E visible
27 Nov -1.9 18:49:17 10° WSW 18:51:11 30° W 18:51:11 30° W visible
28 Nov -3.9 17:56:50 10° SW 18:00:06 86° SE 18:01:09 40° NE visible
29 Nov -3.2 17:04:40 10° SSW 17:07:47 42° SE 17:10:54 10° ENE visible
29 Nov -1.8 18:41:32 10° W 18:43:42 24° NW 18:43:42 24° NW visible
30 Nov -2.9 17:48:43 10° WSW 17:51:50 41° NNW 17:53:31 22° NNE visible
01 Dec -1.4 18:34:03 10° WNW 18:35:55 17° NNW 18:35:55 17° NNW visible
02 Dec -2.0 17:40:59 10° W 17:43:40 23° NNW 17:45:37 14° NNE visible
03 Dec -1.2 18:26:40 10° NW 18:27:55 13° NNW 18:27:55 13° NNW visible
